[[{"header":{"parameterUnit":"m.s-1","parameterCategory":1,"la1":30.2991,"la2":30.254,"lo1":-89.0895,"lo2":-89.0444,"dy":0.0017,"dx":0.0017,"nx":28,"ny":28,"refTime":"2025-08-06T21:00:00:Z","depth":0,"parameterNumber":2,"parameterNumberName":"U-component_of_WINDS"},"data":[0,0,0,0,0,0,0,0,0,0,0,0,0,0,0,0,0,0,0,0,0,0,0,0,0,0,0,0,0,0,0,0,0,0,0,0,0,0,0,0,0,0,0,0,0,0,0,0,0,0,0,0,0,0,0,0,0,0,0.007,0.007,0,0.0033,0.0033,0.0032,0.001,0.001,0.001,0.001,-0.0028,-0.0029,-0.003,0,0,0,0,0,0,0,0,0,0,0,0,0,0.0121,0.012,0.007,0.007,0.0069,0.0033,0.0033,0.0032,0.001,0.001,0.001,0.001,-0.0028,-0.0029,-0.003,0,0,0,0,0,0,0,0,0,0,0,0,0,0.0093,0.012,0.007,0.0054,0.0052,0.0033,0.0033,0.0032,0.001,0.001,0.001,0.001,-0.0027,-0.0029,-0.003,-0.0035,0,0,-0.0034,-0.0035,0,0,0,0,0,0,0,0,0.0094,0.0091,0.0057,0.0055,0.0053,0.0026,0.0037,0.0009,0.001,0.0026,0.001,0.001,-0.001,-0.0013,-0.0019,-0.0037,-0.0039,-0.0034,-0.0035,-0.0036,-0.0036,0,0,0,0,0,0,0,0.0096,0.0092,0.0056,0.0056,0.0054,0.0048,0.0044,0.0031,0.001,0.0025,0.0023,0.0019,-0.0011,-0.0018,-0.002,-0.0039,-0.0034,-0.0035,-0.0036,-0.0037,-0.0066,-0.0066,0,0,0,0,0,0,0.0101,0.0094,0.0057,0.0055,0.0074,0.0047,0.0043,0.0035,0.001,0.0006,0.0019,0.0018,-0.0015,-0.0019,-0.0022,-0.0031,-0.0036,-0.0037,-0.0038,-0.0066,-0.0066,-0.0066,0,0,0,0,0,0,0.0102,0.0098,0.0058,0.0074,0.0068,0.0047,0.0038,0.0034,0.0027,0.0005,0.0001,0.0016,-0.0016,-0.002,-0.0032,-0.0033,-0.0038,-0.0039,-0.0066,-0.0066,-0.0066,-0.0049,0,0,0,0,0,0,0.0104,0.0099,0.0097,0.0074,0.0068,0.0049,0.0038,0.0034,0.0025,0.0023,0.0001,-0.0002,-0.0016,-0.003,-0.0034,-0.0035,-0.004,-0.0066,-0.0066,-0.0066,-0.005,-0.0048,-0.0047,0,0,0,0,0,0.0106,0.0104,0.0097,0.0092,0.0065,0.0049,0.0045,0.0029,0.0025,0.0023,0.0008,-0.0002,-0.0032,-0.0031,-0.0035,-0.0037,-0.0066,-0.0066,-0.0066,-0.005,-0.0049,-0.0047,0,0,0,0,0,0,0.0128,0.0101,0.0093,0.0083,0.0068,0.0045,0.0042,0.0032,0.0018,0.0017,-0.0002,-0.0007,-0.0018,-0.0029,-0.0027,-0.0045,-0.0051,-0.0051,-0.0037,-0.0036,-0.0035,-0.0032,-0.0041,0,0,0,0,0,0.0131,0.0121,0.0097,0.0091,0.0084,0.0064,0.0057,0.0046,0.003,0.0023,0.0008,-0.0007,-0.0021,-0.0029,-0.0042,-0.0052,-0.0058,-0.0055,-0.0054,-0.0053,-0.0053,-0.0061,-0.006,-0.0066,-0.0066,-0.0066,0,0,0.0139,0.0123,0.0118,0.0095,0.0083,0.0071,0.0059,0.0049,0.004,0.0022,0.0009,-0.0004,-0.0022,-0.0034,-0.004,-0.0043,-0.0053,-0.0053,-0.0052,-0.0052,-0.0061,-0.006,-0.006,-0.0066,-0.0066,-0.0066,0,0,0.0148,0.0135,0.0127,0.0114,0.0095,0.0081,0.0079,0.0057,0.0048,0.0034,0.002,0.0009,-0.0013,-0.0027,-0.0036,-0.0036,-0.0046,-0.004,-0.0033,-0.0041,-0.004,-0.004,-0.0041,-0.0041,-0.004,-0.004,-0.004,0,0.016,0.0143,0.0125,0.0114,0.0104,0.0086,0.0078,0.0066,0.0043,0.0037,0.0033,0.0003,-0.001,-0.0026,-0.0026,-0.0033,-0.0037,-0.0037,-0.0039,-0.0039,-0.0039,-0.004,-0.004,-0.0039,-0.0039,-0.0039,-0.0039,0,0.0158,0.0146,0.0143,0.012,0.0109,0.01,0.008,0.0071,0.006,0.0047,0.0032,0.0014,-0.0003,-0.0008,-0.0018,-0.0026,-0.0028,-0.0035,-0.0041,-0.0037,-0.0038,-0.0039,-0.0038,-0.0038,-0.0038,-0.0039,0,0,0.0181,0.0147,0.0146,0.0135,0.0111,0.0101,0.009,0.0072,0.0064,0.0048,0.0038,0.0018,0.0011,-0.0,-0.0013,-0.0019,-0.0019,-0.0026,-0.0026,-0.0024,-0.003,-0.0025,-0.0025,-0.0026,-0.0027,-0.0027,-0.0029,0,0.0186,0.0166,0.0148,0.0134,0.0122,0.0103,0.0093,0.0077,0.0063,0.005,0.0035,0.0021,0.0013,0.0006,-0.0001,-0.0017,-0.0021,-0.0018,-0.0037,-0.0037,-0.0031,-0.0025,-0.0019,-0.002,-0.0029,-0.003,-0.003,0,0.0189,0.0173,0.0158,0.0133,0.0127,0.0118,0.0099,0.0087,0.0068,0.0058,0.0044,0.0031,0.0017,0.0011,-0.0008,-0.0006,-0.0015,-0.0025,-0.0025,-0.0027,-0.0033,-0.0028,-0.0021,-0.0021,-0.003,-0.003,-0.003,0,0.0207,0.0181,0.0168,0.0159,0.013,0.0124,0.0112,0.0092,0.0081,0.0064,0.0056,0.0038,0.0028,0.0014,-0.0005,-0.0007,-0.0024,-0.003,-0.0033,-0.0032,-0.0034,-0.0034,-0.0029,-0.004,-0.004,-0.004,-0.004,0,0.0214,0.0205,0.0176,0.0168,0.0156,0.0135,0.0125,0.011,0.0092,0.008,0.0063,0.0052,0.0028,0.0014,-0.0001,-0.0016,-0.002,-0.0029,-0.0033,-0.0027,-0.0026,-0.0033,-0.0034,-0.004,-0.004,-0.004,-0.004,0,0.0233,0.0213,0.0197,0.017,0.0162,0.0155,0.0131,0.0122,0.0107,0.0092,0.0087,0.0062,0.0045,0.0024,0.0,-0.001,-0.0024,-0.003,-0.0018,-0.002,-0.0021,-0.0021,-0.002,-0.0022,-0.0032,-0.0032,-0.0032,0,0.0239,0.0232,0.0203,0.0193,0.0181,0.0166,0.0155,0.0133,0.0122,0.0097,0.009,0.0071,0.0055,0.0027,0.0006,-0.0013,-0.0019,-0.0018,-0.0022,-0.0017,-0.002,-0.0019,-0.0021,-0.0016,-0.0016,-0.0016,-0.0016,0,0.0252,0.0242,0.0226,0.0206,0.0192,0.0176,0.0159,0.0152,0.0126,0.0114,0.0095,0.0082,0.0056,0.0037,0.0014,0.0001,-0.0012,-0.0015,-0.0016,-0.0011,-0.0003,-0.0008,-0.0014,-0.0014,-0.0014,-0.0014,-0.0015,-0.0015,0.0264,0.0256,0.0234,0.0216,0.02,0.0184,0.0173,0.0155,0.0139,0.0116,0.0104,0.0085,0.0063,0.0032,0.0018,0.0002,-0.0002,-0.0004,-0.0005,-0.0005,-0.0004,-0.0001,-0.0002,-0.0002,-0.0002,-0.0002,-0.0002,0,0.0276,0.026,0.0244,0.0219,0.0205,0.0193,0.0172,0.0161,0.0145,0.0125,0.0108,0.0086,0.0066,0.0043,0.0022,0.0013,0.0007,0.0008,0.0009,0.0006,0.0002,0.0005,0.0014,0.0014,0.0014,0.0014,0.0014,0.0014,0.028,0.0265,0.0252,0.0228,0.0212,0.0193,0.0182,0.0166,0.015,0.0125,0.0108,0.0093,0.0072,0.0048,0.0029,0.0023,0.0015,0.0019,0.0011,0.0008,0.0006,0.0005,0.0008,0.0017,0.0017,0.0016,0.0016,0.0016]},{"header":{"parameterUnit":"m.s-1","parameterCategory":1,"la1":30.2991,"la2":30.254,"lo1":-89.0895,"lo2":-89.0444,"dy":0.0017,"dx":0.0017,"nx":28,"ny":28,"refTime":"2025-08-06T21:00:00:Z","depth":0,"parameterNumber":3,"parameterNumberName":"V-component_of_WINDS"},"data":[0,0,0,0,0,0,0,0,0,0,0,0,0,0,0,0,0,0,0,0,0,0,0,0,0,0,0,0,0,0,0,0,0,0,0,0,0,0,0,0,0,0,0,0,0,0,0,0,0,0,0,0,0,0,0,0,0,0,0.2772,0.2771,0,0.2733,0.2733,0.2732,0.2721,0.2721,0.2721,0.2721,0.2681,0.268,0.2678,0,0,0,0,0,0,0,0,0,0,0,0,0,0.2835,0.2833,0.2772,0.2771,0.2771,0.2733,0.2733,0.2732,0.2721,0.2721,0.2721,0.2721,0.2681,0.268,0.2678,0,0,0,0,0,0,0,0,0,0,0,0,0,0.2803,0.2833,0.2772,0.2761,0.2759,0.2733,0.2733,0.2732,0.2721,0.2721,0.2721,0.2722,0.2682,0.268,0.2678,0.266,0,0,0.2672,0.2671,0,0,0,0,0,0,0,0,0.2805,0.28,0.2763,0.2761,0.276,0.2732,0.274,0.2708,0.2721,0.2735,0.2721,0.2722,0.2698,0.2694,0.2686,0.2658,0.2657,0.2672,0.2671,0.267,0.2669,0,0,0,0,0,0,0,0.2807,0.2802,0.2756,0.2762,0.276,0.2757,0.2753,0.2734,0.2715,0.2734,0.2733,0.2729,0.2697,0.2688,0.2685,0.2656,0.2672,0.267,0.2669,0.2668,0.2611,0.2611,0,0,0,0,0,0,0.2811,0.2804,0.2758,0.2755,0.2783,0.2756,0.2751,0.2741,0.2715,0.2712,0.2729,0.2728,0.2691,0.2688,0.2684,0.2661,0.267,0.2668,0.2667,0.2611,0.2611,0.2611,0,0,0,0,0,0,0.2812,0.2807,0.2759,0.2779,0.2773,0.2754,0.2743,0.274,0.2731,0.2711,0.2708,0.2723,0.2691,0.2687,0.2666,0.266,0.2667,0.2666,0.2612,0.2611,0.2611,0.2616,0,0,0,0,0,0,0.2814,0.2808,0.2801,0.2779,0.2772,0.2742,0.2742,0.2739,0.2728,0.2727,0.2705,0.2702,0.2691,0.2669,0.2664,0.2657,0.2664,0.2612,0.2612,0.2611,0.2616,0.2615,0.2615,0,0,0,0,0,0.2817,0.2804,0.2801,0.2795,0.2763,0.2742,0.2738,0.2726,0.2728,0.272,0.2708,0.2703,0.2661,0.2667,0.2662,0.2654,0.2613,0.2612,0.2611,0.2616,0.2615,0.2615,0,0,0,0,0,0,0.2824,0.2801,0.2797,0.2777,0.2762,0.274,0.2731,0.2726,0.271,0.271,0.2695,0.2691,0.2671,0.266,0.2667,0.2635,0.2637,0.2635,0.2643,0.2642,0.2641,0.2644,0.2663,0,0,0,0,0,0.2824,0.2809,0.2789,0.2773,0.2766,0.275,0.274,0.2732,0.2716,0.2709,0.2695,0.2679,0.2662,0.2651,0.2635,0.2615,0.2609,0.2607,0.2606,0.2606,0.2604,0.2592,0.259,0.2608,0.2608,0.2608,0,0,0.2822,0.2807,0.2799,0.2774,0.2761,0.2746,0.2744,0.2728,0.2716,0.2707,0.2686,0.2676,0.2657,0.2636,0.2626,0.2627,0.2598,0.2604,0.2604,0.2603,0.2591,0.2589,0.2588,0.2607,0.2607,0.2607,0,0,0.2812,0.2799,0.2784,0.2772,0.2753,0.2742,0.2739,0.2718,0.2711,0.2691,0.2683,0.2669,0.264,0.2627,0.2617,0.2602,0.2596,0.2597,0.2593,0.2582,0.258,0.2579,0.2573,0.2571,0.2595,0.2595,0.2595,0,0.2812,0.2789,0.2777,0.2761,0.2751,0.2742,0.2726,0.2715,0.2691,0.2684,0.2685,0.2649,0.2636,0.2612,0.2608,0.26,0.2595,0.2599,0.2582,0.258,0.2579,0.2573,0.2571,0.2595,0.2595,0.2595,0.2595,0,0.279,0.2774,0.2764,0.2742,0.273,0.2715,0.2701,0.269,0.2684,0.2673,0.2652,0.2636,0.2616,0.261,0.2604,0.2585,0.2586,0.2584,0.2586,0.2577,0.2572,0.2569,0.2595,0.2595,0.2595,0.2595,0,0,0.2782,0.2755,0.2751,0.2741,0.272,0.2707,0.2691,0.2672,0.2663,0.2647,0.2633,0.261,0.2608,0.2596,0.2588,0.2578,0.2566,0.2578,0.2577,0.2576,0.2545,0.2546,0.2543,0.2563,0.2563,0.2562,0.2546,0,0.2769,0.274,0.2729,0.2706,0.2691,0.2682,0.2669,0.2654,0.2644,0.2629,0.2618,0.2601,0.26,0.2593,0.2583,0.257,0.256,0.2571,0.2549,0.2549,0.2554,0.254,0.2541,0.2527,0.2544,0.2544,0.2543,0,0.2749,0.2733,0.2708,0.2689,0.2682,0.267,0.2651,0.2638,0.2621,0.2614,0.2601,0.2593,0.2576,0.2579,0.2555,0.2563,0.2553,0.2545,0.2545,0.2541,0.2545,0.2536,0.2522,0.2519,0.254,0.254,0.254,0,0.2745,0.2718,0.2699,0.2691,0.2668,0.2659,0.2649,0.2633,0.2622,0.2606,0.2599,0.2581,0.2571,0.2557,0.2544,0.2548,0.2521,0.2523,0.2514,0.2515,0.2508,0.2509,0.2492,0.2504,0.2504,0.2504,0.2504,0,0.273,0.2715,0.2697,0.2686,0.2669,0.2657,0.264,0.2629,0.2615,0.2601,0.2592,0.2579,0.2564,0.2549,0.254,0.2521,0.2516,0.251,0.2507,0.251,0.2511,0.2503,0.2504,0.2503,0.2503,0.2503,0.2503,0,0.2723,0.2711,0.269,0.267,0.2665,0.2653,0.2635,0.2624,0.2614,0.2596,0.2591,0.2575,0.2556,0.2543,0.252,0.2513,0.2493,0.249,0.2498,0.2497,0.2489,0.249,0.2465,0.2461,0.2477,0.2477,0.2477,0,0.2714,0.2703,0.2681,0.2672,0.2662,0.2646,0.2635,0.2623,0.2612,0.2592,0.2582,0.2564,0.2548,0.252,0.2505,0.2487,0.2484,0.2477,0.2481,0.2484,0.2483,0.2484,0.2482,0.2476,0.2476,0.2476,0.2476,0,0.27,0.2694,0.2679,0.2661,0.2649,0.2634,0.262,0.2612,0.2597,0.2585,0.2566,0.2554,0.2531,0.2512,0.2493,0.2482,0.2476,0.2475,0.2472,0.2474,0.2479,0.2475,0.2496,0.2475,0.2475,0.2475,0.2475,0.2475,0.2691,0.268,0.2663,0.2647,0.2635,0.2621,0.2609,0.2597,0.2582,0.2562,0.2556,0.2536,0.252,0.2493,0.2482,0.2466,0.2467,0.2462,0.2461,0.246,0.246,0.2482,0.2463,0.2463,0.2463,0.2463,0.2463,0,0.2675,0.2664,0.2649,0.2629,0.2616,0.2612,0.2596,0.2585,0.2568,0.2553,0.2538,0.2517,0.2499,0.2484,0.2465,0.2455,0.2452,0.2451,0.2451,0.2448,0.2461,0.2465,0.2454,0.2454,0.2454,0.2454,0.2454,0.2454,0.2666,0.2647,0.264,0.2615,0.2604,0.2585,0.2576,0.2563,0.2551,0.2528,0.2513,0.2503,0.2488,0.2468,0.2451,0.2447,0.244,0.2439,0.2434,0.2446,0.2448,0.2449,0.2452,0.2438,0.2438,0.2423,0.2423,0.2423]}]]